| time (UTC) | temp C | wind direction | speed KPH | gust KPH | rain 1hr cm | rain 24hr cm | rain mn cm | humidity % | barometer mb |
| 20260508004625 | 10 | 225 | 4.8 | 27.4 | 0.10 | 0.10 | 3.84 | 92 | 1003.0 |
| 20260508003604 | 10 | 270 | 12.9 | 32.2 | 0.03 | 0.03 | 3.78 | 92 | 1002.9 |
| 20260508003054 | 10 | 293 | 9.7 | 33.8 | 0.03 | 0.03 | 3.78 | 91 | 1002.8 |
| 20260508002543 | 10 | 270 | 9.7 | 33.8 | 0.00 | 0.00 | 3.76 | 91 | 1003.1 |
| 20260508001527 | 11 | 293 | 8.0 | 32.2 | 0.00 | 0.00 | 3.76 | 90 | 1002.9 |
| 20260507235953 | 11 | 270 | 6.4 | 37.0 | 0.00 | 0.00 | 3.76 | 87 | 1002.7 |
| 20260507235444 | 11 | 293 | 16.1 | 37.0 | 0.00 | 0.00 | 3.76 | 87 | 1002.6 |
| 20260507234933 | 11 | 293 | 12.9 | 33.8 | 0.00 | 0.00 | 3.76 | 86 | 1002.7 |
| 20260507234423 | 11 | 248 | 11.3 | 33.8 | 0.00 | 0.00 | 3.76 | 86 | 1002.8 |
| 20260507233913 | 11 | 270 | 8.0 | 32.2 | 0.00 | 0.00 | 3.76 | 86 | 1002.8 |
| 20260507233403 | 11 | 293 | 17.7 | 29.0 | 0.00 | 0.00 | 3.76 | 86 | 1002.8 |
| 20260507232853 | 11 | 315 | 12.9 | 25.7 | 0.00 | 0.00 | 3.76 | 86 | 1002.9 |
| 20260507232343 | 11 | 293 | 9.7 | 25.7 | 0.00 | 0.00 | 3.76 | 86 | 1002.8 |
| 20260507231832 | 11 | 315 | 6.4 | 24.1 | 0.00 | 0.00 | 3.76 | 86 | 1003.0 |
| 20260507230813 | 11 | 248 | 6.4 | 27.4 | 0.00 | 0.00 | 3.76 | 86 | 1003.1 |
| 20260507225753 | 12 | 248 | 12.9 | 24.1 | 0.00 | 0.00 | 3.76 | 85 | 1003.0 |
| 20260507225243 | 12 | 293 | 8.0 | 24.1 | 0.00 | 0.00 | 3.76 | 85 | 1003.0 |
| 20260507223712 | 12 | 315 | 6.4 | 32.2 | 0.00 | 0.00 | 3.76 | 86 | 1003.0 |
| 20260507222652 | 12 | 293 | 6.4 | 27.4 | 0.00 | 0.00 | 3.76 | 87 | 1003.2 |
| 20260507222141 | 11 | 315 | 11.3 | 27.4 | 0.00 | 0.00 | 3.76 | 88 | 1002.8 |
| 20260507221121 | 12 | 270 | 8.0 | 35.4 | 0.00 | 0.00 | 3.76 | 89 | 1002.7 |
| 20260507220611 | 12 | 270 | 12.9 | 22.5 | 0.00 | 0.00 | 3.76 | 88 | 1002.7 |
| 20260507220101 | 12 | 338 | 12.9 | 37.0 | 0.00 | 0.00 | 3.76 | 88 | 1002.4 |
| 20260507215041 | 12 | 270 | 12.9 | 37.0 | 0.00 | 0.00 | 3.76 | 87 | 1002.4 |
| 20260507214530 | 12 | 270 | 17.7 | 37.0 | 0.00 | 0.00 | 3.76 | 87 | 1002.3 |
| 20260507214020 | 12 | 270 | 16.1 | 25.7 | 0.00 | 0.00 | 3.76 | 86 | 1002.1 |
| 20260507213510 | 12 | 293 | 6.4 | 25.7 | 0.00 | 0.00 | 3.76 | 85 | 1002.2 |
| 20260507213000 | 12 | 315 | 14.5 | 25.7 | 0.00 | 0.00 | 3.76 | 85 | 1002.2 |
| 20260507212450 | 12 | 293 | 11.3 | 25.7 | 0.00 | 0.00 | 3.76 | 85 | 1002.2 |
| 20260507211940 | 12 | 270 | 16.1 | 25.7 | 0.00 | 0.00 | 3.76 | 85 | 1002.4 |
| 20260507211430 | 12 | 293 | 12.9 | 24.1 | 0.00 | 0.00 | 3.76 | 84 | 1002.4 |
| 20260507210919 | 12 | 248 | 8.0 | 20.9 | 0.00 | 0.00 | 3.76 | 84 | 1002.3 |
| 20260507210410 | 12 | 270 | 12.9 | 25.7 | 0.00 | 0.00 | 3.76 | 84 | 1002.3 |
| 20260507205900 | 12 | 338 | 11.3 | 32.2 | 0.00 | 0.00 | 3.76 | 84 | 1002.2 |
| 20260507204839 | 13 | 23 | 14.5 | 32.2 | 0.00 | 0.00 | 3.76 | 83 | 1001.9 |
| 20260507203819 | 13 | 270 | 9.7 | 24.1 | 0.00 | 0.00 | 3.76 | 82 | 1002.0 |
| 20260507203309 | 13 | 248 | 12.9 | 24.1 | 0.00 | 0.00 | 3.76 | 82 | 1001.6 |
| 20260507202249 | 13 | 293 | 11.3 | 25.7 | 0.00 | 0.00 | 3.76 | 80 | 1001.8 |
| 20260507201228 | 13 | 293 | 11.3 | 32.2 | 0.00 | 0.00 | 3.76 | 79 | 1001.5 |
| 20260507200718 | 13 | 315 | 14.5 | 32.2 | 0.00 | 0.00 | 3.76 | 78 | 1001.7 |
| 20260507195658 | 13 | 315 | 4.8 | 22.5 | 0.00 | 0.00 | 3.76 | 78 | 1001.2 |
| 20260507195147 | 13 | 293 | 12.9 | 22.5 | 0.00 | 0.00 | 3.76 | 77 | 1000.9 |
| 20260507194638 | 13 | 225 | 12.9 | 24.1 | 0.00 | 0.00 | 3.76 | 77 | 1000.8 |
| 20260507194128 | 13 | 248 | 12.9 | 24.1 | 0.00 | 0.00 | 3.76 | 77 | 1000.5 |
| 20260507192047 | 13 | 293 | 11.3 | 24.1 | 0.00 | 0.00 | 3.76 | 75 | 1000.9 |
| 20260507191028 | 14 | 270 | 11.3 | 32.2 | 0.00 | 0.00 | 3.76 | 75 | 1000.9 |
| 20260507190007 | 15 | 270 | 16.1 | 27.4 | 0.00 | 0.00 | 3.76 | 73 | 1001.4 |
| 20260507184437 | 14 | 270 | 12.9 | 32.2 | 0.00 | 0.00 | 3.76 | 74 | 1002.3 |
| 20260507183926 | 14 | 270 | 14.5 | 32.2 | 0.00 | 0.00 | 3.76 | 74 | 1002.4 |
| 20260507183416 | 14 | 293 | 14.5 | 35.4 | 0.00 | 0.00 | 3.76 | 74 | 1002.4 |
| 20260507182356 | 14 | 248 | 12.9 | 29.0 | 0.00 | 0.00 | 3.76 | 74 | 1002.6 |
| 20260507181843 | 15 | 315 | 9.7 | 40.2 | 0.00 | 0.00 | 3.76 | 74 | 1002.8 |
| 20260507181333 | 14 | 293 | 27.4 | 40.2 | 0.00 | 0.00 | 3.76 | 73 | 1003.1 |
| 20260507180825 | 14 | 293 | 12.9 | 27.4 | 0.00 | 0.00 | 3.76 | 74 | 1003.3 |
| 20260507175806 | 15 | 293 | 9.7 | 25.7 | 0.00 | 0.00 | 3.76 | 76 | 1003.3 |
| 20260507175255 | 14 | 315 | 16.1 | 25.7 | 0.00 | 0.00 | 3.76 | 75 | 1003.3 |
| 20260507174235 | 14 | 293 | 12.9 | 20.9 | 0.00 | 0.00 | 3.76 | 76 | 1003.4 |
| 20260507173725 | 14 | 293 | 4.8 | 24.1 | 0.00 | 0.00 | 3.76 | 76 | 1003.4 |
| 20260507172704 | 14 | 293 | 12.9 | 27.4 | 0.00 | 0.00 | 3.76 | 76 | 1002.5 |
| 20260507172154 | 14 | 338 | 19.3 | 27.4 | 0.00 | 0.00 | 3.76 | 76 | 1002.0 |
| 20260507171645 | 14 | 248 | 16.1 | 24.1 | 0.00 | 0.00 | 3.76 | 76 | 1002.1 |
| 20260507170624 | 14 | 315 | 11.3 | 27.4 | 0.00 | 0.00 | 3.76 | 76 | 1002.2 |
| 20260507170114 | 14 | 270 | 9.7 | 27.4 | 0.00 | 0.00 | 3.76 | 76 | 1002.2 |
| 20260507165605 | 14 | 248 | 12.9 | 17.7 | 0.00 | 0.00 | 3.76 | 77 | 1001.9 |
| 20260507165054 | 15 | 248 | 3.2 | 17.7 | 0.00 | 0.00 | 3.76 | 77 | 1002.0 |
| 20260507164544 | 14 | 293 | 6.4 | 17.7 | 0.00 | 0.00 | 3.76 | 77 | 1002.2 |
| 20260507164033 | 14 | 248 | 9.7 | 20.9 | 0.00 | 0.00 | 3.76 | 77 | 1002.3 |
| 20260507163524 | 14 | 248 | 9.7 | 20.9 | 0.00 | 0.00 | 3.76 | 77 | 1002.7 |
| 20260507163013 | 14 | 338 | 9.7 | 25.7 | 0.00 | 0.00 | 3.76 | 77 | 1002.7 |
| 20260507162504 | 14 | 248 | 9.7 | 25.7 | 0.00 | 0.00 | 3.76 | 77 | 1003.0 |
| 20260507161443 | 14 | 293 | 12.9 | 33.8 | 0.00 | 0.00 | 3.76 | 77 | 1003.1 |
| 20260507160933 | 14 | 248 | 17.7 | 33.8 | 0.00 | 0.00 | 3.76 | 77 | 1003.2 |
| 20260507155913 | 15 | 270 | 9.7 | 32.2 | 0.00 | 0.00 | 3.76 | 77 | 1002.6 |
| 20260507155403 | 15 | 203 | 6.4 | 25.7 | 0.00 | 0.00 | 3.76 | 78 | 1002.5 |
| 20260507154853 | 14 | 270 | 16.1 | 25.7 | 0.00 | 0.00 | 3.76 | 78 | 1002.5 |
| 20260507153832 | 14 | 225 | 12.9 | 24.1 | 0.00 | 0.00 | 3.76 | 79 | 1002.3 |
| 20260507153323 | 14 | 203 | 12.9 | 24.1 | 0.00 | 0.00 | 3.76 | 79 | 1002.3 |
| 20260507152813 | 14 | 248 | 6.4 | 22.5 | 0.00 | 0.00 | 3.76 | 79 | 1002.7 |
| 20260507151752 | 14 | 270 | 9.7 | 25.7 | 0.00 | 0.00 | 3.76 | 79 | 1002.2 |
| 20260507151242 | 14 | 270 | 4.8 | 25.7 | 0.00 | 0.00 | 3.76 | 80 | 1002.3 |
| 20260507150732 | 14 | 248 | 8.0 | 32.2 | 0.00 | 0.00 | 3.76 | 79 | 1002.5 |
| 20260507150222 | 14 | 270 | 11.3 | 32.2 | 0.00 | 0.00 | 3.76 | 79 | 1002.2 |
| 20260507145711 | 14 | 248 | 12.9 | 22.5 | 0.00 | 0.00 | 3.76 | 79 | 1002.7 |
| 20260507144651 | 15 | 293 | 8.0 | 25.7 | 0.00 | 0.00 | 3.76 | 79 | 1002.5 |
| 20260507144141 | 14 | 225 | 17.7 | 25.7 | 0.00 | 0.00 | 3.76 | 79 | 1002.8 |
| 20260507143637 | 14 | 248 | 16.1 | 24.1 | 0.00 | 0.00 | 3.76 | 79 | 1002.6 |
| 20260507143121 | 14 | 203 | 8.0 | 25.7 | 0.00 | 0.00 | 3.76 | 81 | 1002.4 |
| 20260507142611 | 14 | 225 | 8.0 | 35.4 | 0.00 | 0.00 | 3.76 | 81 | 1002.3 |
| 20260507141551 | 13 | 270 | 19.3 | 35.4 | 0.00 | 0.00 | 3.76 | 85 | 1002.4 |
| 20260507141040 | 14 | 248 | 12.9 | 17.7 | 0.00 | 0.00 | 3.76 | 87 | 1002.6 |
| 20260507140540 | 14 | 270 | 6.4 | 17.7 | 0.00 | 0.00 | 3.76 | 88 | 1002.6 |
| 20260507135511 | 15 | 270 | 6.4 | 11.3 | 0.00 | 0.00 | 3.76 | 89 | 1002.3 |
| 20260507135000 | 15 | 315 | 6.4 | 11.3 | 0.00 | 0.00 | 3.76 | 89 | 1001.7 |
| 20260507133939 | 15 | 248 | 3.2 | 11.3 | 0.00 | 0.00 | 3.76 | 89 | 1002.0 |
| 20260507133430 | 15 | 248 | 1.6 | 11.3 | 0.00 | 0.00 | 3.76 | 89 | 1002.5 |
| 20260507132409 | 15 | 248 | 3.2 | 11.3 | 0.00 | 0.00 | 3.76 | 89 | 1002.4 |
| 20260507131350 | 15 | 225 | 3.2 | 17.7 | 0.00 | 0.00 | 3.76 | 89 | 1002.9 |
| 20260507130839 | 15 | 270 | 3.2 | 12.9 | 0.00 | 0.00 | 3.76 | 89 | 1002.8 |
| 20260507130329 | 15 | 270 | 3.2 | 12.9 | 0.00 | 0.00 | 3.76 | 89 | 1002.6 |
| 20260507125819 | 15 | 293 | 6.4 | 12.9 | 0.00 | 0.00 | 3.76 | 89 | 1003.2 |
| 20260507125309 | 15 | 315 | 3.2 | 12.9 | 0.00 | 0.00 | 3.76 | 89 | 1002.9 |
| 20260507124758 | 15 | 293 | 6.4 | 12.9 | 0.00 | 0.00 | 3.76 | 89 | 1002.9 |
| 20260507123738 | 15 | 293 | 3.2 | 6.4 | 0.00 | 0.00 | 3.76 | 89 | 1002.3 |
| 20260507123228 | 15 | 293 | 3.2 | 12.9 | 0.00 | 0.00 | 3.76 | 89 | 1001.9 |
| 20260507122718 | 15 | 248 | 3.2 | 12.9 | 0.00 | 0.00 | 3.76 | 89 | 1001.6 |
| 20260507121657 | 15 | 248 | 4.8 | 12.9 | 0.00 | 0.00 | 3.76 | 89 | 1001.9 |
| 20260507121148 | 15 | 225 | 6.4 | 11.3 | 0.00 | 0.00 | 3.76 | 89 | 1002.0 |
| 20260507120638 | 15 | 270 | 6.4 | 17.7 | 0.00 | 0.00 | 3.76 | 89 | 1001.9 |
| 20260507120127 | 15 | 248 | 4.8 | 17.7 | 0.00 | 0.00 | 3.76 | 89 | 1001.6 |
| 20260507115618 | 15 | 270 | 4.8 | 25.7 | 0.00 | 0.00 | 3.76 | 90 | 1001.4 |
| 20260507115107 | 15 | 270 | 6.4 | 25.7 | 0.00 | 0.00 | 3.76 | 90 | 1001.6 |
| 20260507114558 | 15 | 225 | 9.7 | 22.5 | 0.00 | 0.00 | 3.76 | 90 | 1000.9 |
| 20260507114047 | 15 | 225 | 9.7 | 22.5 | 0.00 | 0.00 | 3.76 | 90 | 1000.2 |
| 20260507113537 | 15 | 225 | 9.7 | 25.7 | 0.00 | 0.00 | 3.76 | 91 | 1000.6 |
| 20260507113027 | 15 | 225 | 14.5 | 27.4 | 0.00 | 0.00 | 3.76 | 91 | 1001.1 |
| 20260507112517 | 15 | 203 | 11.3 | 27.4 | 0.00 | 0.00 | 3.76 | 91 | 1001.3 |
| 20260507112006 | 15 | 270 | 16.1 | 25.7 | 0.00 | 0.00 | 3.76 | 92 | 1001.4 |
| 20260507111457 | 14 | 315 | 9.7 | 20.9 | 0.00 | 0.00 | 3.76 | 92 | 1001.8 |
| 20260507110437 | 14 | 338 | 6.4 | 22.5 | 0.00 | 0.00 | 3.76 | 93 | 1001.2 |
| 20260507105926 | 14 | 225 | 6.4 | 17.7 | 0.00 | 0.00 | 3.76 | 94 | 1001.2 |
| 20260507105416 | 14 | 225 | 12.9 | 17.7 | 0.00 | 0.00 | 3.76 | 94 | 1000.9 |
| 20260507104906 | 14 | 203 | 8.0 | 17.7 | 0.00 | 0.00 | 3.76 | 94 | 1000.0 |
| 20260507104356 | 14 | 248 | 6.4 | 14.5 | 0.00 | 0.00 | 3.76 | 95 | 1000.1 |
| 20260507103335 | 14 | 248 | 3.2 | 17.7 | 0.00 | 0.00 | 3.76 | 95 | 1000.7 |
| 20260507102826 | 15 | 225 | 6.4 | 22.5 | 0.00 | 0.00 | 3.76 | 95 | 1000.9 |
| 20260507102315 | 15 | 315 | 6.4 | 22.5 | 0.00 | 0.00 | 3.76 | 95 | 1001.3 |
| 20260507101805 | 15 | 293 | 6.4 | 11.3 | 0.00 | 0.00 | 3.76 | 95 | 1001.2 |
| 20260507101255 | 15 | 315 | 3.2 | 22.5 | 0.00 | 0.00 | 3.76 | 95 | 1000.5 |
| 20260507095725 | 15 | 293 | 11.3 | 25.7 | 0.00 | 0.00 | 3.76 | 95 | 999.9 |
| 20260507095215 | 15 | 270 | 11.3 | 25.7 | 0.00 | 0.00 | 3.76 | 95 | 999.1 |
| 20260507094705 | 15 | 248 | 6.4 | 17.7 | 0.00 | 0.00 | 3.76 | 95 | 999.0 |
| 20260507093645 | 15 | 248 | 6.4 | 17.7 | 0.00 | 0.00 | 3.76 | 95 | 1000.3 |
| 20260507092114 | 15 | 248 | 11.3 | 17.7 | 0.00 | 0.00 | 3.76 | 95 | 1000.8 |
| 20260507091604 | 15 | 248 | 6.4 | 17.7 | 0.00 | 0.00 | 3.76 | 95 | 1000.9 |
| 20260507091053 | 16 | 270 | 3.2 | 17.7 | 0.00 | 0.00 | 3.76 | 95 | 1001.0 |
| 20260507090544 | 16 | 315 | 6.4 | 14.5 | 0.00 | 0.00 | 3.76 | 95 | 1000.9 |
| 20260507090034 | 16 | 270 | 6.4 | 12.9 | 0.00 | 0.00 | 3.76 | 95 | 1001.0 |
| 20260507085523 | 16 | 248 | 6.4 | 12.9 | 0.00 | 0.00 | 3.76 | 95 | 1001.2 |
| 20260507085013 | 16 | 293 | 3.2 | 9.7 | 0.00 | 0.00 | 3.76 | 95 | 1000.7 |
| 20260507084504 | 16 | 248 | 4.8 | 9.7 | 0.00 | 0.00 | 3.76 | 95 | 1000.1 |
| 20260507083443 | 16 | 225 | 3.2 | 12.9 | 0.00 | 0.00 | 3.76 | 95 | 999.5 |
| 20260507082933 | 16 | 248 | 6.4 | 17.7 | 0.00 | 0.00 | 3.76 | 95 | 1000.2 |
| 20260507082422 | 16 | 248 | 6.4 | 17.7 | 0.00 | 0.00 | 3.76 | 95 | 1000.5 |
| 20260507081912 | 16 | 203 | 6.4 | 17.7 | 0.00 | 0.00 | 3.76 | 95 | 1000.5 |
| 20260507081403 | 16 | 293 | 6.4 | 17.7 | 0.00 | 0.00 | 3.76 | 95 | 1001.1 |
| 20260507080852 | 16 | 270 | 6.4 | 9.7 | 0.00 | 0.00 | 3.76 | 95 | 1001.6 |
| 20260507080147 | 7 | 293 | 6.4 | 0.0 | 0.00 | 0.00 | 3.76 | 81 | 1001.6 |
| 20260507075524 | 16 | 270 | 6.4 | 12.9 | 0.00 | 3.81 | 3.76 | 95 | 1001.7 |
| 20260507075014 | 16 | 225 | 6.4 | 12.9 | 0.00 | 3.81 | 3.76 | 95 | 1001.9 |
| 20260507074504 | 16 | 270 | 4.8 | 12.9 | 0.00 | 3.81 | 3.76 | 95 | 1002.0 |
| 20260507073444 | 16 | 270 | 8.0 | 14.5 | 0.00 | 3.81 | 3.76 | 95 | 1000.8 |
| 20260507072933 | 16 | 248 | 6.4 | 12.9 | 0.00 | 3.81 | 3.76 | 95 | 1000.4 |
| 20260507072423 | 17 | 270 | 6.4 | 12.9 | 0.00 | 3.81 | 3.76 | 95 | 1000.4 |
| 20260507071913 | 17 | 248 | 3.2 | 6.4 | 0.03 | 3.81 | 3.76 | 95 | 1000.7 |
| 20260507071404 | 17 | 203 | 3.2 | 6.4 | 0.03 | 3.81 | 3.76 | 95 | 1000.3 |
| 20260507070343 | 17 | 225 | 0.0 | 6.4 | 0.03 | 3.81 | 3.76 | 95 | 1000.5 |
| 20260507065833 | 17 | 293 | 3.2 | 6.4 | 0.03 | 3.81 | 3.76 | 95 | 1000.7 |
| 20260507065323 | 17 | 315 | 0.0 | 6.4 | 0.03 | 3.81 | 3.76 | 95 | 1000.5 |
| 20260507064813 | 17 | 0 | 3.2 | 6.4 | 0.05 | 3.81 | 3.76 | 95 | 999.6 |
| 20260507063753 | 17 | 68 | 3.2 | 6.4 | 0.13 | 3.81 | 3.76 | 95 | 999.3 |
| 20260507063242 | 17 | 113 | 1.6 | 14.5 | 0.18 | 3.81 | 3.76 | 95 | 999.3 |
| 20260507062222 | 17 | 135 | 6.4 | 24.1 | 0.20 | 3.81 | 3.76 | 95 | 998.8 |
| 20260507061713 | 17 | 180 | 8.0 | 11.3 | 0.20 | 3.78 | 3.71 | 95 | 998.3 |
| 20260507061202 | 17 | 90 | 3.2 | 9.7 | 0.23 | 3.78 | 3.71 | 95 | 1000.1 |
| 20260507060652 | 17 | 113 | 1.6 | 11.3 | 0.28 | 3.78 | 3.71 | 95 | 1000.2 |
| 20260507060142 | 17 | 203 | 4.8 | 11.3 | 0.28 | 3.78 | 3.71 | 95 | 999.6 |
| 20260507055631 | 17 | 158 | 3.2 | 3.2 | 0.28 | 3.78 | 3.71 | 95 | 1000.0 |
| 20260507055122 | 17 | 90 | 0.0 | 6.4 | 0.28 | 3.78 | 3.71 | 95 | 1001.5 |
| 20260507054612 | 17 | 158 | 1.6 | 6.4 | 0.28 | 3.76 | 3.68 | 94 | 1001.9 |
| 20260507054101 | 17 | 135 | 3.2 | 6.4 | 0.23 | 3.71 | 3.66 | 95 | 1002.5 |
| 20260507053042 | 17 | 315 | 3.2 | 9.7 | 0.18 | 3.63 | 3.58 | 94 | 1003.2 |
| 20260507052530 | 17 | 293 | 3.2 | 9.7 | 0.15 | 3.61 | 3.53 | 94 | 1002.9 |
| 20260507051521 | 17 | 203 | 4.8 | 20.9 | 0.20 | 3.58 | 3.51 | 94 | 1002.2 |
| 20260507051000 | 17 | 248 | 9.7 | 20.9 | 0.20 | 3.51 | 3.48 | 94 | 1001.4 |
| 20260507050450 | 18 | 180 | 11.3 | 17.7 | 0.23 | 3.51 | 3.45 | 94 | 1000.8 |
| 20260507045430 | 18 | 225 | 6.4 | 12.9 | 0.38 | 3.51 | 3.45 | 94 | 1001.6 |
| 20260507044920 | 18 | 203 | 8.0 | 14.5 | 0.53 | 3.51 | 3.45 | 94 | 1000.8 |
| 20260507043900 | 18 | 203 | 8.0 | 12.9 | 1.27 | 3.48 | 3.43 | 94 | 1001.4 |
| 20260507042840 | 18 | 315 | 4.8 | 6.4 | 1.55 | 3.45 | 3.38 | 94 | 1002.5 |
| 20260507042329 | 18 | 180 | 3.2 | 6.4 | 1.85 | 3.45 | 3.38 | 94 | 1001.7 |
| 20260507041820 | 18 | 135 | 1.6 | 3.2 | 2.36 | 3.38 | 3.33 | 94 | 1002.1 |
| 20260507041310 | 18 | 135 | 1.6 | 17.7 | 2.82 | 3.33 | 3.28 | 94 | 1002.1 |
| 20260507040249 | 18 | 248 | 8.0 | 17.7 | 3.12 | 3.25 | 3.17 | 94 | 1000.7 |
| 20260507035739 | 18 | 248 | 9.7 | 22.5 | 3.10 | 3.15 | 3.10 | 94 | 1000.1 |
| 20260507035229 | 18 | 225 | 4.8 | 22.5 | 3.00 | 3.05 | 3.00 | 93 | 1001.1 |
| 20260507034719 | 20 | 248 | 6.4 | 20.9 | 2.84 | 2.92 | 2.84 | 93 | 1001.6 |
| 20260507034208 | 20 | 248 | 11.3 | 17.7 | 2.34 | 2.39 | 2.34 | 93 | 1001.2 |
| 20260507033659 | 20 | 248 | 11.3 | 20.9 | 2.06 | 2.13 | 2.06 | 93 | 999.9 |
| 20260507033149 | 20 | 225 | 9.7 | 22.5 | 1.98 | 2.03 | 1.98 | 93 | 1000.4 |
| 20260507032638 | 20 | 293 | 11.3 | 24.1 | 1.78 | 1.83 | 1.80 | 93 | 1000.1 |
| 20260507032128 | 20 | 248 | 11.3 | 24.1 | 1.32 | 1.37 | 1.35 | 92 | 1000.4 |
| 20260507031618 | 20 | 248 | 8.0 | 24.1 | 0.71 | 0.79 | 0.79 | 92 | 1000.4 |
| 20260507031109 | 20 | 270 | 8.0 | 24.1 | 0.23 | 0.30 | 0.28 | 91 | 1000.1 |
| 20260507030049 | 21 | 293 | 16.1 | 40.2 | 0.00 | 0.05 | 0.03 | 87 | 998.8 |
| 20260507025538 | 25 | 338 | 30.6 | 40.2 | 0.00 | 0.05 | 0.05 | 79 | 999.6 |
| 20260507024517 | 25 | 68 | 11.3 | 24.1 | 0.00 | 0.05 | 0.05 | 80 | 998.2 |
| 20260507024007 | 25 | 338 | 11.3 | 27.4 | 0.00 | 0.05 | 0.05 | 80 | 998.3 |
| 20260507023457 | 25 | 0 | 11.3 | 27.4 | 0.00 | 0.05 | 0.05 | 79 | 998.5 |
| 20260507022947 | 25 | 23 | 8.0 | 24.1 | 0.00 | 0.05 | 0.05 | 79 | 998.4 |
| 20260507022437 | 25 | 23 | 12.9 | 24.1 | 0.00 | 0.05 | 0.05 | 79 | 998.3 |
| 20260507021927 | 26 | 0 | 12.9 | 24.1 | 0.00 | 0.05 | 0.05 | 78 | 998.5 |
| 20260507021417 | 26 | 23 | 4.8 | 27.4 | 0.00 | 0.05 | 0.05 | 78 | 998.7 |
| 20260507020906 | 26 | 0 | 17.7 | 27.4 | 0.00 | 0.05 | 0.05 | 79 | 999.0 |
| 20260507015846 | 26 | 23 | 6.4 | 24.1 | 0.00 | 0.05 | 0.05 | 79 | 999.2 |
| 20260507015336 | 26 | 23 | 12.9 | 24.1 | 0.00 | 0.05 | 0.05 | 79 | 999.3 |
| 20260507014826 | 26 | 338 | 9.7 | 22.5 | 0.00 | 0.05 | 0.05 | 79 | 999.6 |
| 20260507014316 | 26 | 23 | 8.0 | 27.4 | 0.00 | 0.05 | 0.05 | 79 | 999.9 |
| 20260507013806 | 26 | 0 | 12.9 | 27.4 | 0.00 | 0.05 | 0.05 | 79 | 999.9 |
| 20260507013256 | 26 | 0 | 12.9 | 25.7 | 0.00 | 0.05 | 0.05 | 79 | 999.7 |
| 20260507012746 | 26 | 23 | 9.7 | 24.1 | 0.00 | 0.05 | 0.05 | 79 | 999.6 |
| 20260507011726 | 26 | 23 | 8.0 | 32.2 | 0.00 | 0.05 | 0.05 | 78 | 999.6 |
| 20260507011215 | 26 | 338 | 16.1 | 32.2 | 0.00 | 0.05 | 0.05 | 78 | 1000.2 |
| 20260507010705 | 26 | 338 | 9.7 | 27.4 | 0.00 | 0.05 | 0.05 | 77 | 999.9 |
| 20260507010155 | 26 | 315 | 6.4 | 32.2 | 0.00 | 0.05 | 0.05 | 78 | 999.7 |
| 20260507005135 | 26 | 45 | 9.7 | 24.1 | 0.00 | 0.05 | 0.05 | 77 | 999.7 |